[[{"header":{"parameterUnit":"m.s-1","parameterCategory":1,"la1":30.2991,"la2":30.254,"lo1":-89.0895,"lo2":-89.0444,"dy":0.0017,"dx":0.0017,"nx":28,"ny":28,"refTime":"2025-04-19T21:00:00:Z","depth":0,"parameterNumber":2,"parameterNumberName":"U-component_of_WINDS"},"data":[0,0,0,0,0,0,0,0,0,0,0,0,0,0,0,0,0,0,0,0,0,0,0,0,0,0,0,0,0,0,0,0,0,0,0,0,0,0,0,0,0,0,0,0,0,0,0,0,0,0,0,0,0,0,0,0,0,0,-5.2737,-5.2738,0,-5.287,-5.2871,-5.2873,-5.2855,-5.2853,-5.2851,-5.2849,-5.2984,-5.2989,-5.2995,0,0,0,0,0,0,0,0,0,0,0,0,0,-5.2466,-5.2471,-5.2737,-5.2738,-5.274,-5.287,-5.2871,-5.2873,-5.2856,-5.2853,-5.2851,-5.2848,-5.2982,-5.2989,-5.2995,0,0,0,0,0,0,0,0,0,0,0,0,0,-5.2589,-5.2472,-5.2736,-5.2747,-5.2749,-5.2869,-5.2871,-5.2874,-5.2856,-5.2853,-5.285,-5.2847,-5.298,-5.2988,-5.2996,-5.3114,0,0,-5.3022,-5.3026,0,0,0,0,0,0,0,0,-5.2582,-5.2599,-5.2744,-5.2746,-5.2749,-5.2843,-5.2825,-5.2954,-5.2857,-5.2816,-5.2849,-5.2845,-5.2939,-5.2951,-5.2983,-5.312,-5.3126,-5.3023,-5.3028,-5.3032,-5.3034,0,0,0,0,0,0,0,-5.2574,-5.2594,-5.2789,-5.2746,-5.2749,-5.2744,-5.2758,-5.285,-5.2894,-5.2819,-5.2818,-5.2834,-5.294,-5.2975,-5.2986,-5.3128,-5.3023,-5.303,-5.3035,-5.3039,-5.3367,-5.3371,0,0,0,0,0,0,-5.2563,-5.2587,-5.2785,-5.2793,-5.2656,-5.2752,-5.2768,-5.2816,-5.2893,-5.2902,-5.2837,-5.2833,-5.2962,-5.2976,-5.2991,-5.3133,-5.3032,-5.3039,-5.3044,-5.3364,-5.3368,-5.3372,0,0,0,0,0,0,-5.2557,-5.2581,-5.278,-5.269,-5.2715,-5.276,-5.2815,-5.282,-5.2855,-5.2907,-5.2914,-5.2864,-5.296,-5.2979,-5.3083,-5.3137,-5.3043,-5.3051,-5.3359,-5.3365,-5.337,-5.3418,0,0,0,0,0,0,-5.2549,-5.2579,-5.2624,-5.2691,-5.272,-5.2871,-5.2818,-5.2825,-5.287,-5.2866,-5.2934,-5.2943,-5.2959,-5.3071,-5.3092,-5.3147,-5.3058,-5.3355,-5.3362,-5.3368,-5.3412,-5.3424,-5.3435,0,0,0,0,0,-5.254,-5.2632,-5.2627,-5.2651,-5.2777,-5.2874,-5.289,-5.2908,-5.2874,-5.292,-5.2953,-5.294,-5.3128,-5.3082,-5.3105,-5.3164,-5.3351,-5.336,-5.3368,-5.3406,-5.3422,-5.3435,0,0,0,0,0,0,-5.257,-5.2641,-5.2636,-5.2753,-5.2807,-5.2871,-5.2929,-5.2923,-5.2988,-5.2982,-5.3,-5.3016,-5.3121,-5.3153,-5.31,-5.3281,-5.3235,-5.3248,-5.3256,-5.3271,-5.3283,-5.3273,-5.3065,0,0,0,0,0,-5.259,-5.2663,-5.2721,-5.2819,-5.2846,-5.2883,-5.2926,-5.2934,-5.2992,-5.3014,-5.3055,-5.3111,-5.3182,-5.3229,-5.3297,-5.3417,-5.3431,-5.3468,-5.348,-5.349,-5.35,-5.3565,-5.3582,-5.3399,-5.3399,-5.3399,0,0,-5.2633,-5.2681,-5.2726,-5.2826,-5.2869,-5.2943,-5.2903,-5.2983,-5.3038,-5.3026,-5.3127,-5.3159,-5.3223,-5.3335,-5.3386,-5.3364,-5.3554,-5.35,-5.3507,-5.3513,-5.3575,-5.3592,-5.3608,-5.3405,-5.3404,-5.3403,0,0,-5.2748,-5.2792,-5.2878,-5.2922,-5.2989,-5.3013,-5.3033,-5.3098,-5.3119,-5.322,-5.3213,-5.3279,-5.3402,-5.3447,-5.3486,-5.3618,-5.3609,-5.364,-5.3701,-5.3764,-5.3778,-5.3791,-5.3837,-5.3854,-5.3651,-5.3651,-5.3651,0,-5.2793,-5.2905,-5.2923,-5.3004,-5.3048,-5.3042,-5.3128,-5.317,-5.3256,-5.3286,-5.3261,-5.3414,-5.3457,-5.3579,-5.3611,-5.3643,-5.3667,-5.3632,-5.3775,-5.3788,-5.38,-5.3844,-5.3862,-5.3655,-5.3654,-5.3654,-5.3654,0,-5.2955,-5.3033,-5.3094,-5.3177,-5.3228,-5.3312,-5.3342,-5.3391,-5.3396,-5.3422,-5.3525,-5.3576,-5.3654,-5.3684,-5.3689,-5.3807,-5.3791,-5.377,-5.3724,-5.382,-5.3862,-5.3879,-5.3659,-5.3658,-5.3657,-5.3656,0,0,-5.3093,-5.3185,-5.3207,-5.3244,-5.3317,-5.3377,-5.346,-5.3537,-5.3579,-5.3638,-5.3707,-5.3812,-5.3793,-5.3837,-5.3847,-5.3902,-5.4003,-5.3875,-5.3876,-5.3896,-5.4134,-5.4149,-5.4168,-5.3998,-5.4001,-5.4004,-5.4129,0,-5.3214,-5.3361,-5.338,-5.351,-5.3582,-5.3577,-5.3649,-5.3701,-5.3728,-5.3792,-5.3822,-5.3895,-5.3865,-5.3892,-5.3946,-5.3979,-5.4051,-5.3971,-5.4061,-5.4064,-5.4044,-5.419,-5.4206,-5.4322,-5.4145,-5.4148,-5.415,0,-5.3376,-5.3439,-5.3577,-5.3639,-5.367,-5.3735,-5.3806,-5.3868,-5.3927,-5.3943,-5.3993,-5.3996,-5.4081,-5.4032,-5.4149,-5.4094,-5.4133,-5.4155,-5.4159,-5.4167,-5.4112,-5.4201,-5.4359,-5.4376,-5.4176,-5.4174,-5.4172,0,-5.3461,-5.3581,-5.3679,-5.3711,-5.3787,-5.3832,-5.3865,-5.3921,-5.3966,-5.4029,-5.4058,-5.413,-5.4169,-5.4225,-5.4247,-5.421,-5.4363,-5.4316,-5.4377,-5.4377,-5.4408,-5.4406,-5.4573,-5.4435,-5.4435,-5.4435,-5.4434,0,-5.3594,-5.3678,-5.3718,-5.3778,-5.3871,-5.3892,-5.3984,-5.4015,-5.4065,-5.4131,-5.4131,-5.4193,-5.4219,-5.4285,-5.4303,-5.4396,-5.4414,-5.4429,-5.4432,-5.4428,-5.4426,-5.4452,-5.4444,-5.4439,-5.4438,-5.4437,-5.4437,0,-5.3704,-5.3734,-5.384,-5.3903,-5.3921,-5.3987,-5.4041,-5.4099,-5.4125,-5.4208,-5.4229,-5.427,-5.4347,-5.4375,-5.4469,-5.4481,-5.4589,-5.4586,-5.4569,-5.4569,-5.4628,-5.4622,-5.4818,-5.4844,-5.469,-5.4691,-5.4692,0,-5.3786,-5.3851,-5.3921,-5.3965,-5.4,-5.4071,-5.4117,-5.414,-5.4188,-5.426,-5.4308,-5.4385,-5.4447,-5.4571,-5.4609,-5.468,-5.4679,-5.4742,-5.4689,-5.4683,-5.4678,-5.4674,-5.468,-5.4752,-5.4753,-5.4755,-5.4756,0,-5.3929,-5.3941,-5.4007,-5.4079,-5.4134,-5.4192,-5.4247,-5.4283,-5.4314,-5.4368,-5.4447,-5.4495,-5.4591,-5.4667,-5.474,-5.4774,-5.477,-5.4772,-5.479,-5.4786,-5.4773,-5.4779,-5.4595,-5.4767,-5.4766,-5.4765,-5.4765,-5.4764,-5.4027,-5.4084,-5.4142,-5.4216,-5.426,-5.4313,-5.437,-5.4403,-5.4469,-5.4549,-5.4558,-5.4643,-5.47,-5.4798,-5.4835,-5.4901,-5.4884,-5.491,-5.4916,-5.4922,-5.4926,-5.4763,-5.4915,-5.4915,-5.4914,-5.4914,-5.4914,0,-5.4169,-5.4206,-5.4274,-5.4352,-5.441,-5.4402,-5.4463,-5.4512,-5.4586,-5.464,-5.4701,-5.4792,-5.4865,-5.4909,-5.4983,-5.5027,-5.5027,-5.5046,-5.5042,-5.505,-5.4938,-5.4914,-5.5044,-5.5044,-5.5044,-5.5044,-5.5044,-5.5044,-5.425,-5.4345,-5.4364,-5.4481,-5.4517,-5.46,-5.4636,-5.4683,-5.4726,-5.4827,-5.4888,-5.4916,-5.4966,-5.5043,-5.511,-5.5121,-5.5148,-5.5168,-5.5177,-5.5071,-5.5058,-5.5045,-5.5023,-5.5174,-5.5174,-5.5283,-5.5284,-5.5285]},{"header":{"parameterUnit":"m.s-1","parameterCategory":1,"la1":30.2991,"la2":30.254,"lo1":-89.0895,"lo2":-89.0444,"dy":0.0017,"dx":0.0017,"nx":28,"ny":28,"refTime":"2025-04-19T21:00:00:Z","depth":0,"parameterNumber":3,"parameterNumberName":"V-component_of_WINDS"},"data":[0,0,0,0,0,0,0,0,0,0,0,0,0,0,0,0,0,0,0,0,0,0,0,0,0,0,0,0,0,0,0,0,0,0,0,0,0,0,0,0,0,0,0,0,0,0,0,0,0,0,0,0,0,0,0,0,0,0,4.4358,4.436,0,4.4506,4.4508,4.4509,4.4549,4.4548,4.4547,4.4547,4.4693,4.4697,4.4702,0,0,0,0,0,0,0,0,0,0,0,0,0,4.4107,4.4112,4.4358,4.436,4.4362,4.4506,4.4508,4.451,4.4549,4.4548,4.4547,4.4546,4.4691,4.4697,4.4703,0,0,0,0,0,0,0,0,0,0,0,0,0,4.4232,4.4113,4.4358,4.4399,4.4404,4.4505,4.4508,4.451,4.4549,4.4548,4.4547,4.4546,4.469,4.4696,4.4703,4.4772,0,0,4.4725,4.4728,0,0,0,0,0,0,0,0,4.4224,4.4241,4.4391,4.4397,4.4403,4.4508,4.4473,4.4598,4.455,4.4494,4.4547,4.4545,4.4632,4.4644,4.4674,4.4779,4.4786,4.4725,4.473,4.4733,4.4735,0,0,0,0,0,0,0,4.4216,4.4235,4.4417,4.4393,4.44,4.4409,4.4425,4.4497,4.4568,4.4499,4.4502,4.4519,4.4635,4.4667,4.4678,4.4788,4.4725,4.4731,4.4736,4.4739,4.4959,4.496,0,0,0,0,0,0,4.4201,4.4227,4.4412,4.4421,4.4309,4.4415,4.4433,4.4475,4.4568,4.4581,4.452,4.4521,4.4656,4.467,4.4683,4.4772,4.4733,4.4739,4.4743,4.4957,4.4959,4.4961,0,0,0,0,0,0,4.4195,4.4217,4.4406,4.4325,4.435,4.442,4.4468,4.4479,4.4511,4.4584,4.4596,4.4541,4.4655,4.4673,4.4751,4.4778,4.4742,4.4749,4.4955,4.4958,4.496,4.4949,0,0,0,0,0,0,4.4188,4.4215,4.4242,4.4326,4.4354,4.4472,4.4469,4.4483,4.4524,4.4526,4.4606,4.4618,4.4656,4.474,4.4758,4.4787,4.4754,4.4953,4.4956,4.4959,4.4947,4.4951,4.4954,0,0,0,0,0,4.4179,4.4232,4.4244,4.4266,4.4391,4.4474,4.449,4.4533,4.4526,4.4554,4.4601,4.4616,4.4771,4.4748,4.4768,4.4799,4.4952,4.4955,4.4959,4.4946,4.495,4.4953,0,0,0,0,0,0,4.4148,4.4244,4.4258,4.434,4.4399,4.448,4.4517,4.4536,4.4597,4.4596,4.4646,4.4663,4.4738,4.4776,4.4748,4.4872,4.4861,4.4869,4.4845,4.4849,4.4852,4.4842,4.476,0,0,0,0,0,4.4152,4.4212,4.4292,4.4356,4.4385,4.4446,4.4484,4.4512,4.4575,4.4599,4.4652,4.471,4.4773,4.4813,4.4874,4.4952,4.4971,4.4984,4.4987,4.4989,4.4996,4.5042,4.5049,4.4973,4.4973,4.4973,0,0,4.4158,4.4218,4.4253,4.4352,4.4401,4.4462,4.4467,4.4531,4.4577,4.4608,4.4686,4.4726,4.4795,4.4874,4.4911,4.4908,4.5021,4.4994,4.4995,4.5001,4.5046,4.5053,4.506,4.4975,4.4975,4.4974,0,0,4.4202,4.4253,4.4314,4.4363,4.4438,4.4478,4.4492,4.4572,4.4601,4.4679,4.4705,4.4759,4.4865,4.4914,4.4952,4.5016,4.5032,4.5034,4.5051,4.5095,4.5101,4.5107,4.5131,4.5139,4.504,4.504,4.504,0,4.4201,4.4296,4.4342,4.4406,4.4449,4.4482,4.4544,4.4588,4.4679,4.4707,4.4702,4.4838,4.4886,4.4978,4.4993,4.5023,4.5041,4.5026,4.5097,4.5103,4.5109,4.5132,4.5141,4.504,4.504,4.504,4.504,0,4.4291,4.4356,4.4396,4.4485,4.4532,4.4594,4.4649,4.469,4.4715,4.4755,4.4835,4.4894,4.4969,4.4993,4.5016,4.5088,4.5084,4.5087,4.5078,4.5115,4.5138,4.5147,4.5039,4.5039,4.5039,4.504,0,0,4.4321,4.4435,4.4449,4.449,4.4576,4.4626,4.4689,4.4765,4.48,4.4861,4.4916,4.5005,4.501,4.5053,4.5082,4.512,4.5169,4.5119,4.5122,4.5128,4.5254,4.5252,4.5262,4.518,4.5181,4.5183,4.5248,0,4.4377,4.4494,4.4538,4.4633,4.4694,4.4727,4.4782,4.484,4.4879,4.4936,4.4978,4.5042,4.5042,4.5069,4.5108,4.5155,4.5195,4.515,4.5231,4.5234,4.5215,4.5274,4.5272,4.5331,4.5258,4.5259,4.526,0,4.4459,4.4523,4.4625,4.4704,4.4731,4.478,4.4853,4.4907,4.4973,4.4999,4.5048,4.5075,4.5142,4.5128,4.5221,4.519,4.5225,4.5253,4.5256,4.5267,4.525,4.5287,4.535,4.536,4.5274,4.5273,4.5272,0,4.4473,4.4584,4.466,4.4694,4.4788,4.4822,4.4862,4.4927,4.497,4.5032,4.5061,4.5129,4.5167,4.522,4.5264,4.525,4.5354,4.5343,4.5378,4.5377,4.54,4.5398,4.5471,4.5419,4.5419,4.5419,4.5419,0,4.4532,4.4594,4.4668,4.4715,4.4785,4.4834,4.4901,4.4943,4.5001,4.5056,4.5087,4.5137,4.5192,4.525,4.5285,4.5358,4.5374,4.5397,4.5406,4.5395,4.5393,4.542,4.5418,4.5421,4.5421,4.542,4.542,0,4.456,4.4613,4.4698,4.478,4.4802,4.485,4.492,4.4966,4.5007,4.5077,4.5095,4.5159,4.5229,4.5278,4.5367,4.539,4.5469,4.5477,4.5448,4.5453,4.5485,4.5482,4.5581,4.5597,4.5532,4.5532,4.5533,0,4.4596,4.4645,4.4732,4.4773,4.4813,4.4877,4.4921,4.497,4.5015,4.5095,4.5131,4.5204,4.5264,4.5374,4.5427,4.5496,4.5506,4.5536,4.5517,4.5505,4.5509,4.5506,4.5512,4.5539,4.554,4.554,4.554,0,4.4654,4.4678,4.4742,4.4814,4.4867,4.4926,4.4985,4.5016,4.5076,4.5124,4.5197,4.5244,4.5336,4.5407,4.5481,4.5521,4.5541,4.5546,4.5558,4.5549,4.5531,4.5543,4.5458,4.5544,4.5543,4.5543,4.5543,4.5543,4.4689,4.4734,4.4804,4.4874,4.4924,4.4979,4.5027,4.5075,4.5137,4.5217,4.5241,4.5317,4.5382,4.5484,4.5525,4.5584,4.5583,4.5599,4.5604,4.5608,4.5609,4.552,4.5598,4.5598,4.5598,4.5598,4.5597,0,4.4751,4.4797,4.4861,4.4944,4.4999,4.5014,4.508,4.5125,4.5192,4.5252,4.5311,4.5395,4.5465,4.5524,4.5596,4.5632,4.5643,4.565,4.5648,4.5658,4.5605,4.5589,4.564,4.564,4.564,4.564,4.564,4.564,4.4789,4.4868,4.4899,4.5003,4.5048,4.5124,4.5161,4.5212,4.5261,4.5354,4.5412,4.5451,4.5511,4.5587,4.5652,4.5667,4.5693,4.5698,4.5715,4.5666,4.5661,4.5656,4.5641,4.5702,4.5702,4.5763,4.5764,4.5764]}]]